Flag for Reunion (French) Weather past 2 weeks in Saint-Denis, Reunion (French)

Now
84 °F

Partly sunny.


Feels Like: 92 °F
Forecast: 77 / 85 °F
Wind: 23 mph from Northwest

Location: Saint-Denis / Gillot

Current Time: Dec 18, 2014 at 5:36:48 PM

Latest Report: Dec 18, 2014 at 5:00 PM


Visibility: N/A

Pressure: 29.80 "Hg

Humidity: 74%

Dew point: 75 °F

Location of Saint-DenisLocation

Historic Weather in Saint-Denis — Graph

°F

Saint-Denis temperature yesterday

Maximum temperature yesterday: 88 °F (at 10:47 AM)
Minimum temperature yesterday: 75 °F (at 3:00 AM)
Average temperature yesterday: 82 °F

Past Weeks' High & Low Weather Summary

 TemperatureHumidityPressure
High90 °F (Dec 18, 12:35 PM)94% (Dec 4, 11:00 PM)30.07 "Hg (Dec 4, 11:00 PM)
Low73 °F (Dec 10, 4:00 AM)49% (Dec 11, 1:30 PM)29.77 "Hg (Dec 18, 4:30 PM)
Average81 °F70%29.97 "Hg
* Reported Dec 3 4:00 PM — Dec 18 4:30 PM, Saint-Denis, Weather by CustomWeather, © 2014

Note: Actual official high and low records may vary slightly from our data, if they occured in-between our weather recording intervals... More about our weather records

Advertising

Saint-Denis weather history for previous 24 hours

 ConditionsComfort  
Time TempWeatherWind HumidityBarometerVisibility
4:30 PM
Dec 18
84 °FPartly sunny.24 mph74%29.77 "HgN/A
4:00 PM84 °FPartly sunny.23 mph74%29.80 "HgN/A
3:30 PM86 °FPartly sunny.25 mph70%29.80 "HgN/A
3:00 PM86 °FPartly sunny.24 mph70%29.80 "HgN/A
2:30 PM84 °FPartly sunny.25 mph79%29.80 "HgN/A
2:00 PM86 °FPartly sunny.25 mph75%29.80 "HgN/A
1:00 PM86 °FPartly sunny.22 mph70%29.83 "HgN/A
12:35 PM90 °FPartly sunny.22 mph63%29.83 "HgN/A
12:00 PM88 °FPartly sunny.20 mph66%29.86 "HgN/A
11:30 AM88 °FPartly sunny.21 mph66%29.86 "HgN/A
10:30 AM88 °FScattered clouds.17 mph66%29.86 "HgN/A
10:00 AM88 °FScattered clouds.16 mph66%29.86 "HgN/A
9:30 AM88 °FScattered clouds.15 mph66%29.89 "HgN/A
9:00 AM84 °FScattered clouds.13 mph74%29.89 "HgN/A
8:34 AM84 °FScattered showers. Scattered clouds.16 mph74%29.89 "HgN/A
7:30 AM84 °FScattered showers. Scattered clouds.8 mph70%29.86 "HgN/A
7:00 AM82 °FScattered showers. Scattered clouds.8 mph58%29.86 "HgN/A
6:00 AM77 °FPartly sunny.2 mph69%29.86 "HgN/A
5:30 AM77 °FPartly sunny.2 mph69%29.86 "HgN/A
5:00 AM79 °FPassing clouds.3 mph61%29.83 "HgN/A
4:00 AM79 °FClear.5 mph65%29.83 "HgN/A
3:30 AM79 °FClear.5 mph65%29.86 "HgN/A
3:00 AM79 °FPartly cloudy.3 mph65%29.86 "HgN/A
2:30 AM79 °FPassing clouds.5 mph65%29.86 "HgN/A
2:00 AM79 °FWarm.6 mph65%29.89 "HgN/A
1:30 AM79 °FWarm.5 mph65%29.89 "HgN/A
12:30 AM79 °FClear.5 mph65%29.89 "HgN/A
12:00 AM79 °FScattered showers. Passing clouds.7 mph65%29.92 "HgN/A
11:30 PM
Dec 17
79 °FPassing clouds.7 mph70%29.92 "HgN/A
11:00 PM79 °FPassing clouds.6 mph70%29.92 "HgN/A
10:30 PM79 °FPassing clouds.6 mph74%29.95 "HgN/A
10:00 PM81 °FPassing clouds.5 mph70%29.92 "HgN/A
9:30 PM81 °FPassing clouds.3 mph74%29.92 "HgN/A
9:00 PM81 °FPassing clouds.2 mph79%29.92 "HgN/A
8:30 PM81 °FPassing clouds.1 mph79%29.92 "HgN/A
8:00 PM81 °FPassing clouds.2 mph79%29.92 "HgN/A
7:30 PM82 °FPassing clouds.3 mph74%29.89 "HgN/A
7:00 PM82 °FPassing clouds.5 mph74%29.89 "HgN/A
6:30 PM84 °FPassing clouds.3 mph70%29.86 "HgN/A
6:00 PM84 °FPassing clouds.5 mph70%29.86 "HgN/A
5:30 PM86 °FPassing clouds.7 mph66%29.86 "HgN/A
5:00 PM84 °FScattered clouds.9 mph70%29.86 "HgN/A
Weather by CustomWeather, © 2014

See weather overviewHow to use our weather pages